Weather History for KJZI - March, 2013

Change the Weather History Date:

Saturday, March 23, 2013

  Actual Average (KCHS) Record (KCHS)
Temperature  
Mean Temperature 50 °F 60 °F  
Max Temperature 57 °F 71 °F 87 °F (1935)
Min Temperature 44 °F 48 °F 29 °F (1986)
Degree Days  
Heating Degree Days 14 6  
Month to date heating degree days 196  
Since 1 July heating degree days 1832  
Cooling Degree Days 0 1  
Month to date cooling degree days 21  
Year to date cooling degree days 28  
Moisture  
Dew Point 46 °F    
Average Humidity 84    
Maximum Humidity 100    
Minimum Humidity 59    
Precipitation  
Precipitation 0.57 in 0.11 in 2.10 in (1944)
Month to date precipitation 2.73  
Year to date precipitation 9.40  
Sea Level Pressure  
Sea Level Pressure 29.99 in    
Wind  
Wind Speed 4 mph (NE)    
Max Wind Speed 15 mph    
Max Gust Speed 22 mph    
Visibility 8 miles    
Events Rain    
T = Trace of Precipitation, MM = Missing Value Source: NWS Daily Summary

Daily Weather History Graph

Daily Weather History Graph

Search for Another Location

Airport or City:

Trip Planner

Search our weather history database for the weather conditions in past years. The results will help you decide how hot, cold, wet, or windy it might be!

Date:

Astronomy

Mar. 23, 2013 Rise Set
Actual Time 7:19 AM EDT 7:33 PM EDT
Civil Twilight 6:54 AM EDT 7:58 PM EDT
Nautical Twilight 6:26 AM EDT 8:27 PM EDT
Astronomical Twilight 5:57 AM EDT 8:56 PM EDT
Moon 4:09 PM EDT (3/23) 4:43 AM EDT (3/23)
Length of Visible Light 13h 03m
Length of Day
12h 14m
Waxing Gibbous, 85% of the Moon is Illuminated
Mar 23
Waxing Gibbous
Mar 27
Full
Apr 3
Last Quarter
Apr 10
New
Apr 18
First Quarter

Hourly Weather History & Observations

Time (EDT) Temp. Windchill Dew Point Humidity Pressure Visibility Wind Dir Wind Speed Gust Speed Precip Events Conditions
12:15 AM 48.2 °F - 42.8 °F 82% 30.06 in 10.0 mi Calm Calm - 0.00 in   Overcast
12:35 AM 48.2 °F - 42.8 °F 82% 30.06 in 10.0 mi Calm Calm - 0.00 in   Overcast
12:55 AM 48.2 °F - 42.8 °F 82% 30.06 in 10.0 mi Calm Calm - 0.00 in   Overcast
1:15 AM 48.2 °F - 42.8 °F 82% 30.05 in 10.0 mi Calm Calm - 0.00 in   Overcast
1:35 AM 48.2 °F - 42.8 °F 82% 30.06 in 10.0 mi Calm Calm - 0.00 in   Overcast
1:55 AM 48.2 °F - 42.8 °F 82% 30.05 in 10.0 mi Calm Calm - 0.00 in   Overcast
2:15 AM 48.2 °F - 42.8 °F 82% 30.06 in 10.0 mi Calm Calm - 0.00 in   Overcast
2:35 AM 48.2 °F - 42.8 °F 82% 30.06 in 10.0 mi Calm Calm - 0.00 in   Overcast
2:55 AM 48.2 °F - 42.8 °F 82% 30.05 in 10.0 mi Calm Calm - 0.00 in   Overcast
3:15 AM 46.4 °F - 42.8 °F 87% 30.04 in 10.0 mi Calm Calm - 0.00 in   Scattered Clouds
3:35 AM 46.4 °F - 42.8 °F 87% 30.03 in 10.0 mi Calm Calm - 0.00 in   Clear
3:55 AM 46.4 °F - 42.8 °F 87% 30.03 in 10.0 mi Calm Calm - 0.00 in   Clear
4:15 AM 44.6 °F - 41.0 °F 87% 30.02 in 10.0 mi Calm Calm - 0.00 in   Partly Cloudy
4:35 AM 44.6 °F - 41.0 °F 87% 30.03 in 10.0 mi Calm Calm - 0.00 in   Mostly Cloudy
4:55 AM 46.4 °F - 42.8 °F 87% 30.02 in 10.0 mi Calm Calm - 0.00 in   Overcast
5:15 AM 46.4 °F - 42.8 °F 87% 30.02 in 10.0 mi Calm Calm - 0.00 in   Overcast
5:35 AM 46.4 °F - 42.8 °F 87% 30.02 in 10.0 mi Calm Calm - 0.00 in   Overcast
5:55 AM 48.2 °F - 44.6 °F 87% 30.01 in 10.0 mi Calm Calm - 0.00 in   Overcast
6:15 AM 48.2 °F - 44.6 °F 87% 30.01 in 10.0 mi Calm Calm - 0.00 in   Overcast
6:35 AM 48.2 °F - 44.6 °F 87% 30.00 in 10.0 mi Calm Calm - 0.00 in   Overcast
6:55 AM 50.0 °F - 44.6 °F 82% 30.01 in 10.0 mi Calm Calm - 0.00 in   Overcast
7:15 AM 50.0 °F - 44.6 °F 82% 30.01 in 10.0 mi Calm Calm - 0.00 in   Mostly Cloudy
7:35 AM 48.2 °F - 46.4 °F 93% 30.00 in 10.0 mi Calm Calm - 0.00 in   Mostly Cloudy
7:55 AM 51.8 °F - 46.4 °F 82% 30.01 in 10.0 mi Calm Calm - 0.00 in   Mostly Cloudy
8:15 AM 50.0 °F - 46.4 °F 87% 30.01 in 10.0 mi Calm Calm - 0.00 in   Partly Cloudy
8:35 AM 53.6 °F - 46.4 °F 77% 30.00 in 10.0 mi Calm Calm - 0.00 in   Clear
8:55 AM 55.4 °F - 46.4 °F 72% 30.01 in 10.0 mi ENE 5.8 mph - 0.00 in   Clear
9:15 AM 57.2 °F - 44.6 °F 63% 30.01 in 10.0 mi East 10.4 mph - 0.00 in   Partly Cloudy
9:35 AM 55.4 °F - 44.6 °F 67% 30.01 in 10.0 mi ENE 11.5 mph - 0.00 in   Mostly Cloudy
9:55 AM 57.2 °F - 44.6 °F 63% 30.01 in 10.0 mi ENE 13.8 mph - 0.00 in   Mostly Cloudy
10:15 AM 55.4 °F - 44.6 °F 67% 30.01 in 10.0 mi NE 10.4 mph - 0.00 in   Mostly Cloudy
10:35 AM 57.2 °F - 42.8 °F 59% 30.00 in 10.0 mi ENE 11.5 mph - 0.00 in   Mostly Cloudy
10:55 AM 57.2 °F - 42.8 °F 59% 30.01 in 10.0 mi NNE 6.9 mph - 0.00 in   Mostly Cloudy
11:15 AM 55.4 °F - 42.8 °F 63% 30.02 in 5.0 mi NE 9.2 mph - 0.00 in Rain Light Rain
11:35 AM 53.6 °F - 46.4 °F 77% 30.02 in 3.0 mi NNE 11.5 mph - 0.01 in   Light Drizzle
11:55 AM 51.8 °F - 44.6 °F 76% 30.01 in 7.0 mi NNE 10.4 mph - 0.01 in   Overcast
12:15 PM 51.8 °F - 39.2 °F 62% 30.03 in 5.0 mi North 15.0 mph 19.6 mph 0.01 in Rain Light Rain
12:35 PM 46.4 °F 40.1 °F 41.0 °F 81% 30.03 in 2.5 mi North 15.0 mph 20.7 mph 0.06 in Rain Rain
12:55 PM 46.4 °F 40.4 °F 41.0 °F 81% 30.02 in 1.5 mi North 13.8 mph 21.9 mph 0.12 in Rain Heavy Rain
1:15 PM 44.6 °F 38.8 °F 42.8 °F 93% 30.02 in 1.2 mi NNE 11.5 mph - 0.06 in Rain Heavy Rain
1:35 PM 44.6 °F 39.2 °F 42.8 °F 93% 30.03 in 1.0 mi North 10.4 mph 18.4 mph 0.15 in Rain Heavy Rain
1:55 PM 44.6 °F 38.4 °F 44.6 °F 100% 30.02 in 1.2 mi North 12.7 mph - 0.23 in Rain Heavy Rain
2:15 PM 46.4 °F 40.7 °F 44.6 °F 93% 30.02 in 0.8 mi North 12.7 mph - 0.09 in Rain Heavy Rain
2:35 PM 46.4 °F 42.9 °F 44.6 °F 93% 30.00 in 1.5 mi NNE 6.9 mph - 0.18 in Rain Light Rain
2:55 PM 48.2 °F - 46.4 °F 93% 29.99 in 2.5 mi NNE 3.5 mph - 0.19 in Rain Light Rain
3:15 PM 48.2 °F - 46.4 °F 93% 29.97 in 2.0 mi SE 4.6 mph - 0.01 in Rain Light Rain
3:35 PM 51.8 °F - 48.2 °F 88% 29.93 in 3.0 mi ESE 6.9 mph - 0.02 in   Overcast
3:55 PM 51.8 °F - 48.2 °F 88% 29.91 in 7.0 mi ESE 6.9 mph - 0.02 in   Overcast
4:15 PM 51.8 °F - 50.0 °F 94% 29.90 in 9.0 mi East 6.9 mph - 0.00 in   Overcast
4:35 PM 53.6 °F - 51.8 °F 94% 29.89 in 10.0 mi East 11.5 mph - 0.00 in   Overcast
4:55 PM 55.4 °F - 51.8 °F 88% 29.89 in 10.0 mi ENE 10.4 mph - 0.00 in   Mostly Cloudy
5:15 PM 53.6 °F - 51.8 °F 94% 29.87 in 10.0 mi ENE 13.8 mph - 0.00 in   Overcast
5:35 PM 55.4 °F - 51.8 °F 88% 29.88 in 10.0 mi NE 10.4 mph - 0.00 in   Mostly Cloudy
5:55 PM 53.6 °F - 51.8 °F 94% 29.89 in 10.0 mi NE 11.5 mph - 0.00 in   Overcast
6:15 PM 53.6 °F - 50.0 °F 88% 29.90 in 10.0 mi NE 9.2 mph - 0.00 in   Overcast
6:35 PM 53.6 °F - 50.0 °F 88% 29.91 in 10.0 mi NE 10.4 mph 16.1 mph 0.00 in   Overcast
6:55 PM 51.8 °F - 50.0 °F 94% 29.92 in 10.0 mi ENE 9.2 mph - 0.00 in   Overcast
7:15 PM 51.8 °F - 50.0 °F 94% 29.92 in 9.0 mi NE 8.1 mph - 0.00 in   Overcast
7:35 PM 51.8 °F - 50.0 °F 94% 29.94 in 9.0 mi NNE 6.9 mph - 0.00 in   Overcast
7:55 PM 51.8 °F - 50.0 °F 94% 29.94 in 10.0 mi NNE 11.5 mph - 0.00 in   Overcast
8:15 PM 51.8 °F - 48.2 °F 88% 29.95 in 10.0 mi North 10.4 mph - 0.00 in   Overcast
8:35 PM 51.8 °F - 48.2 °F 88% 29.96 in 8.0 mi NNE 11.5 mph 16.1 mph 0.00 in   Overcast
8:55 PM 51.8 °F - 48.2 °F 88% 29.95 in 9.0 mi North 8.1 mph - 0.00 in   Overcast
9:15 PM 51.8 °F - 48.2 °F 88% 29.95 in 9.0 mi NNE 6.9 mph - 0.00 in   Mostly Cloudy
9:35 PM 51.8 °F - 48.2 °F 88% 29.95 in 8.0 mi NE 5.8 mph - 0.00 in   Mostly Cloudy
9:55 PM 51.8 °F - 48.2 °F 88% 29.95 in 10.0 mi NE 4.6 mph - 0.00 in   Overcast
10:15 PM 51.8 °F - 48.2 °F 88% 29.95 in 10.0 mi Calm Calm - 0.00 in   Overcast
10:35 PM 51.8 °F - 48.2 °F 88% 29.94 in 10.0 mi NE 6.9 mph - 0.00 in   Overcast
10:55 PM 51.8 °F - 48.2 °F 88% 29.93 in 10.0 mi NE 6.9 mph - 0.00 in   Overcast
11:35 PM 51.8 °F - 48.2 °F 88% 29.92 in 9.0 mi North 6.9 mph - 0.00 in   Overcast
11:55 PM 51.8 °F - 48.2 °F 88% 29.89 in 9.0 mi NNE 6.9 mph - 0.00 in   Overcast